www.pogodaiklimat.ru

Погода и климат >> Архив погоды >> Португалия >> Faro


ПОГОДА в Faro

  • Прогноз погоды в Faro
  • Монитор погоды в Faro
  • Климат города

АРХИВ ПОГОДЫ в Faro

Время (UTC), дата Ветер
(напр.,м/с)
 
Видим.   Явления Облачность Т
(С)
Тd
(С)
f
(%)
Тe
(С)
Тes
(С)
Комфортность P
(гПа)
Po
(гПа)
Тmin
(С)
Tmax
(С)
R
(мм)
R24
(мм)
S
(см)
16 16.06 ЮЗ 3
{6}
н/о н/о +23.5 +15.2 60 +26 +26 жарко 1014.5 1013.6
17 16.06 Ю 2 н/о н/о +23.1 +15.9 64 +28 +28 душно 1014.3 1013.4
18 16.06 З 2 20 км ясно +23.0 +16.2 66 +28 +30 душно 1014.1 1013.1 +24.6
19 16.06 З 2 н/о н/о +23.1 +16.4 66 +28 +28 душно 1014.0 1013.1
20 16.06 С 1 н/о н/о +22.5 +16.5 69 +27 +27 душно 1014.1 1013.2
21 16.06 СЗ 3 н/о н/о +23.0 +16.6 67 +28 +28 душно 1014.9 1013.9
22 16.06 З 2 н/о н/о +21.3 +17.4 78 +25 +25 комфорт 1015.0 1014.1
23 16.06 З 2 н/о н/о +21.0 +16.0 73 +25 +25 комфорт 1015.2 1014.2
00 17.06 н/о н/о +20.7 +16.0 74 1015.2 1014.2
01 17.06 СВ 2 н/о н/о +24.5 +12.3 47 +26 +26 жарко 1015.1 1014.2
02 17.06 С 1 н/о н/о +23.5 +12.5 50 +25 +25 комфорт 1015.1 1014.2
03 17.06 СВ 1 н/о н/о +22.9 +12.5 52 +26 +26 жарко 1015.4 1014.4
04 17.06 В 3 н/о н/о +19.6 +15.4 77 +22 +22 комфорт 1015.7 1014.8
05 17.06 СВ 2 н/о н/о +21.6 +14.8 65 +25 +25 комфорт 1015.9 1015.0
06 17.06 СВ 2 20 км ясно +22.1 +14.0 60 +25 +26 комфорт 1016.3 1015.4 +19.4
07 17.06 ЮВ 3 н/о н/о +22.1 +15.5 66 +26 +26 душно 1016.9 1015.9
08 17.06 С 3 н/о н/о +23.1 +16.6 67 +28 +28 душно 1017.4 1016.5
09 17.06 ЮВ 4
{6}
н/о н/о +23.0 +16.4 66 +28 +28 душно 1017.9 1017.0
10 17.06 В 5 н/о н/о +24.9 +15.9 57 +28 +28 жарко 1018.2 1017.2
11 17.06 В 4
{7}
н/о н/о +27.6 +16.3 50 +31 +31 душно 1018.2 1017.3
12 17.06 ЮВ 3
{6}
н/о н/о +28.3 +12.3 37 +29 +29 жарко 1018.2 1017.3
13 17.06 Ю 5 н/о н/о +27.0 +14.8 47 +30 +30 душно 1018.4 1017.5
14 17.06 Ю 3
{6}
н/о н/о +27.1 +15.0 48 +30 +30 душно 1018.1 1017.2
15 17.06
{5}
20 км 1/0
[Ci fib]
+27.0 +13.6 44 1017.8 1016.9
16 17.06 ЮЗ 4
{6}
н/о н/о +25.8 +14.7 50 +28 +28 жарко 1017.7 1016.8
17 17.06 З 5 н/о н/о +26.5 +13.7 45 +29 +29 жарко 1017.5 1016.6
18 17.06 З 5 20 км 5/0
[Ci sp]
+26.2 +13.3 45 +28 +29 жарко 1017.4 1016.5 +29.4
19 17.06 З 4
{7}
н/о н/о +25.4 +12.4 44 +27 +27 жарко 1017.7 1016.8
20 17.06 З 3
{5}
н/о н/о +25.1 +12.9 47 +27 +27 жарко 1017.7 1016.8
21 17.06 СЗ 4
{6}
н/о н/о +26.3 +11.6 40 +28 +28 жарко 1017.5 1016.6
22 17.06 З 2
{6}
н/о н/о +24.4 +15.1 56 +27 +27 жарко 1017.6 1016.7
23 17.06 З 2
{5}
н/о н/о +23.0 +16.4 66 +28 +28 душно 1017.8 1016.9
00 18.06 В 1
{5}
20 км 3/0
[Ci sp]
+22.2 +17.0 72 +27 +27 душно 1017.3 1016.4
01 18.06 штиль 0
{5}
н/о н/о +20.7 +17.2 80 +24 +24 комфорт 1017.1 1016.1
02 18.06 В 4 н/о н/о +20.9 +17.2 79 +25 +25 комфорт 1017.0 1016.1
03 18.06 В 3
{5}
н/о н/о +23.5 +13.2 52 +26 +26 жарко 1017.0 1016.1
04 18.06 СВ 3
{5}
н/о н/о +23.9 +12.6 49 +26 +26 жарко 1016.6 1015.6
05 18.06 В 3 н/о н/о +23.4 +12.1 49 +26 +26 жарко 1016.9 1016.0
06 18.06 СВ 3
{5}
20 км 3/0
[Ci sp]
+24.3 +11.6 45 +26 +26 жарко 1017.0 1016.0 +20.4
07 18.06 В 5 н/о н/о +25.6 +12.6 44 +27 +27 жарко 1017.4 1016.5
08 18.06 В 5 н/о н/о +26.4 +12.4 42 +28 +28 жарко 1017.5 1016.5
09 18.06 В 4
{7}
20 км 6/0
[Ci sp]
+28.2 +13.3 40 +30 +36 жарко 1017.3 1016.4
10 18.06 В 5
{8}
н/о н/о +28.0 +11.3 35 +29 +29 жарко 1017.5 1016.6
11 18.06 В 6 н/о н/о +28.7 +12.2 36 +30 +30 жарко 1017.4 1016.5
12 18.06 В 6 н/о н/о +29.4 +12.4 35 +30 +30 жарко 1017.3 1016.4
13 18.06 ЮВ 6 н/о н/о +29.2 +13.5 38 +31 +31 жарко 1017.2 1016.2
14 18.06 В 7 н/о н/о +26.0 +14.8 50 +29 +29 душно 1017.5 1016.5
15 18.06 В 5
{8}
н/о н/о +26.4 +16.9 56 +30 +30 душно 1017.4 1016.4
16 18.06 ЮВ 3-5
{8}
н/о н/о +25.1 +17.5 63 +29 +29 душно 1017.3 1016.4
17 18.06 ЮВ 3
{6}
н/о н/о +26.9 +15.7 50 +30 +30 душно 1017.0 1016.1
18 18.06 В 4
{6}
20 км 6/0
[Ac trans Ci sp]
+26.8 +15.4 50 +30 +31 душно 1016.6 1015.7 +30.2
19 18.06 В 2
{5}
н/о н/о +25.5 +14.8 52 +28 +28 жарко 1016.6 1015.7
20 18.06 В 2 н/о н/о +24.6 +15.0 55 +27 +27 жарко 1016.8 1015.9
21 18.06 В 2 20 км 5/0
[Ci sp]
+22.9 +16.4 67 +28 +28 душно 1017.0 1016.1
22 18.06 ЮВ 3
{5}
н/о н/о +21.6 +17.0 75 +26 +26 душно 1017.4 1016.5
23 18.06 В 4
{6}
н/о н/о +20.5 +18.0 86 +24 +24 комфорт 1017.4 1016.5
00 19.06 В 4
{6}
н/о н/о +19.7 +18.5 93 +22 +22 комфорт 1017.4 1016.4
01 19.06 В 4
{6}
н/о н/о +19.4 +18.2 93 +22 +22 комфорт 1017.4 1016.5
02 19.06 В 5 н/о н/о +19.9 +18.4 91 +23 +23 комфорт 1017.0 1016.0
03 19.06 В 6 20 км ясно +19.6 +18.2 92 +22 +22 комфорт 1016.8 1015.9
04 19.06 В 7 н/о н/о +19.7 +18.0 90 +22 +22 комфорт 1017.0 1016.1
05 19.06 В 6 н/о н/о +19.8 +18.1 90 +22 +22 комфорт 1017.5 1016.6
06 19.06 В 6 н/о н/о +20.1 +17.9 87 +23 +23 комфорт 1018.0 1017.1 +19.3
07 19.06 В 4
{7}
н/о н/о +21.0 +18.1 84 +25 +25 комфорт 1018.2 1017.3
08 19.06 В 3-5
{5}
н/о н/о +22.0 +17.7 77 +27 +27 душно 1018.5 1017.6
09 19.06 В 6 12 км 1/1 360 м
[Cu hum]
+22.7 +17.8 74 +28 +32 душно 1018.4 1017.5
10 19.06 ЮВ 6
{9}
н/о н/о +22.9 +18.0 74 +28 +28 душно 1018.5 1017.6
11 19.06 ЮВ 4
{8}
н/о н/о +23.9 +16.9 65 +28 +28 душно 1018.2 1017.3
12 19.06 В 5 15 км 1/0
[Ci fib]
+24.5 +17.0 63 +28 +39 душно 1018.1 1017.1
13 19.06 ЮВ 5
{8}
н/о н/о +25.2 +16.5 59 +29 +29 душно 1017.7 1016.8
14 19.06 В 6
{9}
н/о н/о +25.5 +16.8 59 +29 +29 душно 1017.6 1016.6
15 19.06 В 4
{7}
н/о н/о +25.8 +16.7 57 +29 +29 душно 1017.0 1016.1
16 19.06 ЮВ 3
{7}
н/о н/о +24.6 +17.1 63 +28 +28 душно 1016.9 1016.0
17 19.06 СВ 4-6
{6}
н/о н/о +24.5 +16.4 61 +28 +28 душно 1016.5 1015.6
18 19.06 ЮВ 3
{5}
20 км 3/0
[Ac cast]
+23.9 +16.9 65 +28 +29 душно 1016.2 1015.2 +26.7
19 19.06 Ю 1 н/о н/о +23.1 +16.7 67 +28 +28 душно 1016.0 1015.1
20 19.06 С 1 н/о н/о +22.3 +16.8 71 +27 +27 душно 1015.9 1014.9
21 19.06 н/о н/о +22.1 +16.9 72 1016.5 1015.5
22 19.06 С 1 н/о н/о +22.9 +15.5 63 +27 +27 душно 1016.5 1015.6
23 19.06 В 3 н/о н/о +23.1 +15.2 61 +27 +27 душно 1016.9 1016.0
00 20.06 В 4
{7}
н/о н/о +22.8 +15.0 61 +27 +27 душно 1016.8 1015.8
01 20.06 В 6 н/о н/о +21.7 +15.8 69 +25 +25 комфорт 1016.4 1015.4
02 20.06 В 3
{7}
н/о н/о +21.4 +15.8 70 +25 +25 комфорт 1016.0 1015.1
03 20.06 В 4-7
{7}
н/о н/о +21.6 +15.5 68 +25 +25 комфорт 1015.8 1014.9
04 20.06 В 7 н/о н/о +22.0 +15.0 64 +25 +25 комфорт 1015.8 1014.8
05 20.06 В 8 н/о н/о +20.9 +16.5 76 +24 +24 комфорт 1016.1 1015.2
06 20.06 В 9 20 км 1/0
[Ac cast]
+20.7 +17.3 81 +24 +24 комфорт 1016.5 1015.5 +20.5
07 20.06 В 10 н/о н/о +21.4 +18.2 82 +26 +26 душно 1016.5 1015.6
08 20.06 В 9 н/о н/о +22.2 +18.3 79 +27 +27 душно 1016.8 1015.8
09 20.06 В 10 15 км 9/1 900 м
[Cb calv Ac cast Ci sp]
+21.0 +18.0 83 +25 +25 комфорт 1017.2 1016.2
10 20.06 В 7
{12}
н/о н/о +21.0 +18.8 87 +25 +25 комфорт 1017.8 1016.9
11 20.06 В 6
{15}
н/о н/о +20.5 +19.9 96 +25 +25 комфорт 1017.7 1016.8 12
12 20.06 В 7 15 км {гроза, дождь} 9/1 360 м
[Frnb Ac As Ci sp]
+21.6 +18.9 85 +26 +29 душно 1017.3 1016.3 12
13 20.06 ЮВ 4
{9}
н/о н/о +20.7 +19.1 91 +25 +25 комфорт 1018.3 1017.4
14 20.06 В 3
{6}
н/о н/о +21.7 +19.1 85 +27 +27 душно 1016.8 1015.9 0.1
15 20.06 В 3
{5}
15 км 9/4 600 м
[Cu Sc Ac cast Ci sp]
+21.6 +18.3 82 +26 +31 душно 1016.8 1015.9
16 20.06 СЗ 2 н/о н/о +21.4 +18.3 83 +26 +26 душно 1016.4 1015.4 0.1
17 20.06 З 4
{6}
н/о н/о +19.3 +18.4 95 +21 +21 комфорт 1016.2 1015.3
18 20.06 З 4
{7}
10 км {гроза, дождь} 9/3 150 м
[Frnb Ac cast Ci sp]
+19.9 +18.6 92 +23 +24 комфорт 1016.2 1015.3 +22.4
19 20.06 СЗ 2
{5}
н/о н/о +20.1 +18.7 92 +24 +24 комфорт 1016.4 1015.5
20 20.06 СЗ 2
{5}
н/о н/о +20.8 +18.4 86 +26 +26 душно 1016.3 1015.3
21 20.06 СЗ 1
{5}
13 км 5/0
[Ci sp]
+20.4 +18.7 90 +25 +25 комфорт 1016.7 1015.7
22 20.06 СЗ 2
{5}
н/о н/о +19.6 +18.6 94 +23 +23 комфорт 1017.3 1016.3
23 20.06 СЗ 2 н/о н/о +20.2 +18.1 88 +24 +24 комфорт 1017.2 1016.2
00 21.06 СЗ 1 15 км 4/0
[Ac As Ci sp]
+19.7 +17.6 88 +23 +23 комфорт 1017.1 1016.1
01 21.06 С 1 н/о н/о +20.2 +17.6 85 +24 +24 комфорт 1016.8 1015.9
02 21.06 СВ 1 н/о н/о +21.0 +16.8 77 +26 +26 душно 1016.3 1015.3
03 21.06 С 3 н/о н/о +21.1 +16.2 74 +24 +24 комфорт 1015.8 1014.8
04 21.06 СВ 3 н/о н/о +22.1 +15.4 66 +26 +26 душно 1016.0 1015.0
05 21.06 СВ 1
{5}
н/о н/о +21.7 +15.2 67 +25 +25 комфорт 1016.1 1015.1
06 21.06 В 1 15 км 5/0
[Ac cast Ci fib]
+21.3 +16.5 74 +25 +25 комфорт 1016.4 1015.4 +19.1
07 21.06 В 3
{5}
н/о н/о +21.5 +18.8 85 +26 +26 душно 1017.1 1016.1
08 21.06 В 4
{6}
н/о н/о +23.2 +18.4 74 +29 +29 душно 1017.4 1016.5
09 21.06 ЮВ 3
{5}
н/о н/о +24.0 +17.5 67 +28 +28 душно 1016.9 1016.0
10 21.06 Ю 5 н/о н/о +23.6 +17.5 69 +28 +28 душно 1017.2 1016.3
11 21.06 Ю 3-5
{6}
н/о н/о +22.9 +18.3 75 +29 +29 очень
душно
1017.1 1016.2
12 21.06 Ю 5 н/о н/о +24.1 +18.3 70 +29 +29 душно 1017.0 1016.0
13 21.06 ЮВ 4
{7}
н/о н/о +25.4 +18.4 65 +30 +30 душно 1017.1 1016.2
14 21.06 С 2
{8}
н/о н/о +24.3 +17.9 67 +28 +28 душно 1017.0 1016.1
15 21.06 З 5 н/о н/о +23.9 +18.6 72 +28 +28 душно 1016.7 1015.7
16 21.06 З 4-6
{7}
н/о н/о +23.5 +18.6 74 +28 +28 душно 1016.8 1015.8
17 21.06 З 4-6
{7}
н/о н/о +23.7 +18.7 74 +28 +28 душно 1016.7 1015.8
18 21.06 З 4
{6}
15 км 6/1 1200 м
[Sc Ac cast Ci sp]
+23.1 +17.3 70 +28 +29 душно 1016.4 1015.5 +25.5
19 21.06 З 3
{6}
н/о н/о +23.7 +18.1 71 +28 +28 душно 1016.8 1015.8
20 21.06 З 2 н/о н/о +22.5 +17.9 75 +28 +28 душно 1016.7 1015.8
21 21.06 15 км 6/1 1350 м
[Sc Ac trans]
+23.0 +17.7 72 1017.3 1016.3
22 21.06 СЗ 1 н/о н/о +22.3 +16.3 69 +27 +27 душно 1017.3 1016.4
23 21.06 штиль 0 н/о н/о +22.3 +16.5 70 +27 +27 душно 1017.3 1016.3
00 22.06 В 2 н/о н/о +22.6 +16.1 67 +27 +27 душно 1017.1 1016.1
01 22.06 ЮВ 3 н/о н/о +20.6 +18.1 86 +25 +25 комфорт 1016.9 1016.0
02 22.06 СВ 2 н/о н/о +21.3 +17.6 79 +25 +25 комфорт 1016.6 1015.7
03 22.06 СВ 2 н/о н/о +20.8 +17.2 80 +25 +25 комфорт 1016.6 1015.7
04 22.06 В 3 н/о н/о +21.4 +17.3 77 +25 +25 комфорт 1016.6 1015.7
05 22.06 В 2 н/о н/о +21.4 +17.4 78 +25 +25 комфорт 1016.8 1015.8
06 22.06 В 4 15 км 6/4 1200 м
[Sc Ac trans]
+21.4 +17.0 76 +25 +25 комфорт 1016.5 1015.5 +20.4
07 22.06 В 5 н/о н/о +21.1 +18.4 85 +25 +25 комфорт 1016.9 1016.0
08 22.06 В 5
{8}
н/о н/о +21.2 +18.6 85 +26 +26 душно 1017.5 1016.6
09 22.06 В 4
{7}
н/о н/о +21.6 +19.1 86 +27 +27 душно 1017.5 1016.6
10 22.06 В 3
{6}
н/о н/о +22.4 +19.0 81 +28 +28 душно 1017.3 1016.4
11 22.06 ЮВ 3
{5}
н/о н/о +23.9 +18.7 73 +29 +29 душно 1017.5 1016.5
12 22.06 С 2
{5}
15 км 4/1 540 м
[Cu hum Ci fib]
+24.0 +18.8 73 +29 +46 душно 1017.3 1016.4
13 22.06 Ю 4
{6}
н/о н/о +23.7 +18.1 71 +28 +28 душно 1017.0 1016.1
14 22.06 Ю 4
{6}
н/о н/о +24.1 +18.7 72 +29 +29 душно 1016.7 1015.8
15 22.06 З 4
{6}
н/о н/о +23.4 +17.4 69 +29 +29 душно 1016.2 1015.3
16 22.06 З 4 н/о н/о +23.5 +17.4 69 +27 +27 душно 1016.0 1015.1
17 22.06 З 3
{5}
н/о н/о +23.6 +18.3 72 +28 +28 душно 1015.7 1014.7
18 22.06 З 4-6
{6}
н/о н/о +23.1 +18.1 73 +29 +29 очень
душно
1015.5 1014.6 +24.5
19 22.06 З 3
{5}
н/о н/о +22.1 +18.8 82 +27 +27 душно 1015.4 1014.5
20 22.06 З 3
{5}
н/о н/о +21.0 +18.4 85 +26 +26 душно 1015.7 1014.8
21 22.06 З 3 н/о н/о +20.4 +17.8 85 +24 +24 комфорт 1016.1 1015.2
22 22.06 З 4
{6}
н/о н/о +20.3 +18.0 87 +24 +24 комфорт 1016.6 1015.7
23 22.06 З 3
{5}
н/о н/о +20.2 +17.7 86 +24 +24 комфорт 1016.5 1015.6
00 23.06 СЗ 2 н/о н/о +20.1 +18.1 88 +24 +24 комфорт 1016.4 1015.4
01 23.06 ЮЗ 1 н/о н/о +19.6 +17.8 89 +23 +23 комфорт 1016.0 1015.0
02 23.06 З 1 н/о н/о +19.3 +18.3 94 +23 +23 комфорт 1016.1 1015.1
03 23.06 СЗ 1 н/о н/о +19.3 +17.7 90 +22 +22 комфорт 1015.7 1014.8
04 23.06 С 1 н/о н/о +19.0 +17.5 91 +22 +22 комфорт 1015.5 1014.6
05 23.06 штиль 0 н/о н/о +18.8 +17.7 93 +20 +20 1015.6 1014.6
06 23.06 З 1 7000 м дымка 4/4 150 м
[St Ci fib]
+18.6 +17.3 92 +21 +21 комфорт 1016.0 1015.0 +18.4
07 23.06 З 1 н/о н/о +19.3 +18.2 93 +22 +22 комфорт 1016.3 1015.4
08 23.06 З 2 н/о н/о +20.7 +18.2 86 +25 +25 комфорт 1016.5 1015.6
09 23.06 15 км 1/1 360 м
[St Ci fib]
+21.7 +17.6 78 1016.6 1015.7
10 23.06 З 3 н/о н/о +22.2 +17.9 77 +27 +27 душно 1016.8 1015.9
11 23.06 н/о н/о +22.8 +17.8 73 1016.7 1015.7
12 23.06
{5}
н/о н/о +23.0 +18.0 73 1016.4 1015.4
15 23.06 З 4
{6}
18 км ясно +24.5 +18.1 68 +29 +39 душно 1014.9 1014.0
16 23.06 З 5 н/о н/о +24.0 +18.2 70 +28 +28 душно 1014.6 1013.7

 

Местоположение метеостанции Faro (Португалия): широта 37.02 долгота -7.97 высота над уровнем моря 8 м.

В архиве по умолчанию представлена погода в Faro за последнюю неделю. Архивные данные за месяц целиком и за предыдущие месяцы, начиная с января 2011 года, Вы можете получить, выбрав интересующий диапазон дат из раскрывающегося списка и нажав кнопку "Ввод!".


*Определитесь, кто Вы:
робот инопланетянин человек

Внимание! Время в таблицах - всемирное. Для получения местного времени необходимо прибавить поправку, которая в Faro равна 0 ч.

Смотрите также архив погоды в соседних городах и на ближайших метеорологических станциях:

Погода в Sagres (Португалия) (87 км)
Погода в Huelva (Испания) (97 км)
Погода в Beja (Португалия) (112 км)
Погода в Beja / B. Aerea (Португалия) (117 км)
Погода в Sines (Португалия) (130 км)
Погода в Cadiz Bay (Испания) (163 км)
Погода в Evora (Португалия) (168 км)
Погода в Jerez de la Frontera (Испания) (172 км)
Погода в Sevilla (Испания) (189 км)
Погода в Montijo (Португалия) (209 км)

Пояснения к столбцам:

Ветер - указаны скорость ветра в м/с - средняя за 10 мин, порывы в срок и между сроками (в фигурных скобках) и направление, откуда дует ветер: С - северный, СВ - северо-восточный, В - восточный, ЮВ - юго-восточный, Ю - южный, ЮЗ - юго-западный, З - западный, СЗ - северо-западный.
Видимость - горизонтальная дальность видимости в метрах или километрах. При видимости от 1 до 10 км при отсутствии осадков обычно наблюдается дымка, при ухудшении видимости до 1 км и менее - туман. В сухую погоду видимость может ухудшаться дымом, пылью или мглою.
Явления - указаны атмосферные явления, наблюдавшиеся в срок или в последний час перед сроком; фигурными скобками обозначены явления, наблюдавшиеся между сроками (за 1-3 часа до срока); квадратными скобками обозначены град или гололедные отложения с указанием их диаметра в мм.
Облачность - указаны через наклонную черту общая и нижняя облачность в баллах и высота нижней границы облаков в метрах; квадратными скобками обозначены формы облаков: Ci - перистые, Cs - перисто-слоистые, Cc - перисто-кучевые, Ac - высококучевые, As - высокослоистые, Sc - слоисто-кучевые, Ns - слоисто-дождевые, Cu - кучевые, Cb - кучево-дождевые. Подробнее классификацию облаков см. в Атласе облаков (PDF).
T - Температура воздуха - температура, измеренная на высоте 2 м над землей.
Td - Температура точки росы - температура, при понижении до которой содержащийся в воздухе водяной пар достигнет насыщения.
f - Относительная влажность воздуха - влажноcть воздуха, измеренная на высоте 2 м над землей.
Te - Эффективная температура - температура, которую ощущает одетый по сезону человек в тени. Характеристика душности погоды. При расчете учитывается влияние влажности воздуха и скорости ветра на теплоощущения человека.
Tes - Эффективная температура на солнце - температура, которую ощущает человек, с поправкой на солнечный нагрев. Характеристика знойности погоды. Зависит от высоты солнца над горизонтом, облачности и скорости ветра. Ночью, в пасмурную погоду, а также при ветре 12 м/с и более поправка равна нулю.
P - Атмосферное давление - приведенное к уровню моря атмосферное давление.
Po - Атмосферное давление - измеренное на уровне метеостанции атмосферное давление.
Tmin - Минимальная температура - минимум температуры воздуха на высоте 2 м над землей.
Tmax - Максимальная температура - максимум температуры воздуха на высоте 2 м над землей.
R - Количество осадков - Количество выпавших осадков за период времени, мм. При наведении курсора мыши на число - период времени, за который выпало указанное количество осадков.
R24 - Количество осадков - Количество выпавших осадков за 24 часа, мм.
S - Снежный покров - Высота снежного покрова, см. При наведении курсора мыши на число - состояние снежного покрова и степень покрытия местности в баллах.